Regional Weather Roundup
Issued by NWS

Home | Current Version | Previous Version | Text Only | Print | Product List | Glossary On
Versions: 1 2 3 4 5 6 7 8 9 10 11 12 13 14 15 16 17 18 19 20 21 22 23 24 25 26 27 28 29 30 31 32 33 34 35 36 37 38 39 40 41 42 43 44 45 46 47 48 49 50
000
ASUS45 KBOU 210507
RWRCO

WEATHER ROUNDUP FOR COLORADO
NATIONAL WEATHER SERVICE DENVER/BOULDER CO
1100 PM MDT WED AUG 20 2014

NOTE: "FAIR" INDICATES FEW OR NO CLOUDS BELOW 12000 FEET WITH NO
SIGNIFICANT WEATHER AND/OR OBSTRUCTIONS TO VISIBILITY.

COZ001>005-013-030-031-210600-
...NORTHWEST COLORADO...

CITY           SKY/WX    TMP DP  RH WIND       PRES   REMARKS
CRAIG          MOCLDY    56  50  80 SE10      30.13F
HAYDEN         MOCLDY    54  48  82 SE13      30.16F
MEEKER         LGT RAIN  57  51  80 E6        30.15F
MOUNT WERNER   NOT AVBL
STEAMBOAT SPGS MOCLDY    53  48  84 SW6       30.22R
WALDEN         CLOUDY    50  45  81 N10       30.27R
$$

COZ006>008-011-210600-
...WEST CENTRAL VALLEYS...

CITY           SKY/WX    TMP DP  RH WIND       PRES   REMARKS
GRAND JUNCTION MOCLDY    65  49  56 N8        30.05S
MONTROSE       CLOUDY    66  49  54 SE7       30.14F
EAGLE          MOCLDY    57  54  88 NW3       30.20S
RIFLE          MOCLDY    66  49  54 VRB3      30.11R
DELTA          NOT AVBL
NUCLA          MOCLDY    61  50  67 SE7       30.20R
$$

COZ017>023-064>068-210600-
...SOUTHWEST COLORADO...

CITY           SKY/WX    TMP DP  RH WIND       PRES   REMARKS
DURANGO        CLEAR     64  37  36 W8        30.17R
CORTEZ         CLEAR     61  46  57 CALM      30.17R
PAGOSA SPRINGS CLEAR     57  40  53 E3        30.23R
TELLURIDE      MOCLDY    52  45  76 CALM      30.37R
WOLF CREEK PAS NOT AVBL
$$

COZ009-010-012-014-032>034-037-058>063-210600-
...CENTRAL COLORADO...

CITY           SKY/WX    TMP DP  RH WIND       PRES   REMARKS
ASPEN          PTCLDY    53  45  74 S6        30.24R
BUENA VISTA    MOCLDY    64  36  35 W12       30.20S
COPPER MTN     PTCLDY    46  36  66 W8        30.50R
BERTHOUD PASS  CLOUDY    39  37  93 W14       30.52F
COTTONWOOD PAS MOCLDY    59  36  41 W15G23    30.33S
GUNNISON       PTCLDY    59  39  47 N6        30.25R
KREMMLING      PTCLDY    52  45  76 CALM      30.24R
LEADVILLE      CLEAR     48  39  71 NE7       30.34R
MONARCH PASS   PTCLDY    43  37  81 W22       30.60S
SALIDA         PTCLDY    66  43  42 W9        30.24S
SUNLIGHT       MOCLDY    45  45 100 CALM      30.43S
WILKERSON PASS MOCLDY    50  36  57 CALM      30.47R
$$

COZ069>075-210600-
...SAN LUIS VALLEY/SANGRE DE CRISTO MOUNTAINS...

CITY           SKY/WX    TMP DP  RH WIND       PRES   REMARKS
ALAMOSA        PTCLDY    54  43  66 CALM      30.19R
LA VETA PASS   NOT AVBL
SAGUACHE       PTCLDY    61  43  51 N8        30.22S
$$

COZ035-036-038>040-210600-
...NORTHERN COLORADO FRONT RANGE...

CITY           SKY/WX    TMP DP  RH WIND       PRES   REMARKS
DENVER INTL AP TSTM      65  57  75 NE6       30.05F
DMNS CITY PARK   N/A     63  58  82 E7        30.04S
AURORA         LGT RAIN  62  57  82 N9        30.07F
FRONT RANGE AP NOT AVBL
ERIE MUNI ARPT MOCLDY    66  56  71 SW3       30.02F
BOULDER MUN AP MOCLDY    70  52  52 CALM      30.01F
CENTENNIAL     CLOUDY    63  55  75 N7        30.08R
BROOMFIELD     NOT AVBL
FORT COLLINS   PTCLDY    66  52  59 S9        30.03R
LONGMONT       PTCLDY    72  53  51 SE3       30.03F
$$

COZ041-046-047-076>085-087-088-210600-
...PIKES PEAK/PALMER DIVIDE AND SOUTHERN FOOTHILLS...

CITY           SKY/WX    TMP DP  RH WIND       PRES   REMARKS
COLO. SPRINGS  MOCLDY    69  52  54 N3        30.08R
A. F. ACADEMY  NOT AVBL
ELLICOTT       LGT RAIN  66  55  67 NE5       30.04R
FALCON         CLOUDY    66  49  55 N8        30.13R
FORT CARSON    CLOUDY    66  57  72 N7        30.03R
LIMON          CLOUDY    69  54  58 N17G23    30.03R
MONUMENT HILL  LGT RAIN  61  50  67 N14G21    30.15R
TRINIDAD       CLEAR     68  49  50 W9        30.00R
$$

COZ042>045-048>051-090-091-210600-
...NORTHEAST COLORADO...

CITY           SKY/WX    TMP DP  RH WIND       PRES   REMARKS
GREELEY ARPT   MOCLDY    64  54  68 S8        30.01R
AKRON          MOCLDY    67  55  65 N12       29.96S
BURLINGTON     CLEAR     68  57  68 NE3       29.90R
WRAY             N/A     65  60  82 W3        29.86R
STERLING       MOCLDY    72  59  64 N15G21    29.91F
HOLYOKE        NOT AVBL
FORT MORGAN    MOCLDY    69  53  56 N13       29.96R
$$

COZ086-089-092>099-210600-
...SOUTHEAST COLORADO...

CITY           SKY/WX    TMP DP  RH WIND       PRES   REMARKS
PUEBLO         PTCLDY    75  53  46 N17       29.90S
LA JUNTA       PTCLDY    79  52  38 SW3       29.85S
LAMAR          CLEAR     75  50  41 CALM      29.81R
SPRINGFIELD      N/A     75  56  51 S14       29.92R
$$


USA.gov is the U.S. government's official web portal to all federal, state and local government web resources and services.